Regional Weather Roundup
Issued by NWS

Home | Current Version | Previous Version | Graphics & Text | Print | Product List | Glossary On
Versions: 1 2 3 4 5 6 7 8 9 10 11 12 13 14 15 16 17 18 19 20 21 22 23 24 25 26 27
000
ASUS45 KPSR 241910
RWRAZ

ARIZONA HOURLY REGIONAL WEATHER ROUNDUP
NATIONAL WEATHER SERVICE PHOENIX AZ
1200 PM MST FRI FEB 24 2017

NOTE: FAIR INDICATES FEW OR NO CLOUDS BELOW 12,000 FEET WITH NO
SIGNIFICANT WEATHER AND/OR OBSTRUCTIONS TO VISIBILITY.

AZZ001>003-036-242000-
NORTHWEST ARIZONA

CITY           SKY/WX    TMP DP  RH WIND       PRES   REMARKS
KINGMAN        SUNNY     47 -13   8 VRB3      30.14F
$$

AZZ004>008-015-016-018-242000-
NORTH CENTRAL ARIZONA

CITY           SKY/WX    TMP DP  RH WIND       PRES   REMARKS
GRAND CANYON   SUNNY     31   3  30 W18G24    30.04S WCI  19
PRESCOTT       SUNNY     41   6  23 N6        30.10F
FLAGSTAFF      SUNNY     32   2  27 W13G23    30.03R WCI  22
PAYSON         SUNNY     43  10  26 W13G18    30.12S
PAGE           SUNNY     41  -6  13 W7G17     30.04S
$$

AZZ009>014-017-242000-
NORTHEAST ARIZONA

CITY           SKY/WX    TMP DP  RH WIND       PRES   REMARKS
WINSLOW        SUNNY     44   4  19 NW10      30.06F
WINDOW ROCK    SUNNY     36   3  25 W20G32    29.98S WCI  25
$$

AZZ023-242000-
GREATER PHOENIX AREA

CITY           SKY/WX    TMP DP  RH WIND       PRES   REMARKS
PHOENIX        MOSUNNY   58  24  27 VRB5      30.13F
BUCKEYE        SUNNY     55  23  28 CALM      30.15F
GLENDALE       MOSUNNY   55  27  33 CALM      30.16S
LUKE AFB       SUNNY     57  24  28 N3        30.13F
DEER VALLEY    SUNNY     54  22  28 VRB3      30.13S
SCOTTSDALE     SUNNY     55  25  31 SW6       30.15S
MESA-GATEWAY   SUNNY     54  21  28 CALM      30.15
CHANDLER       SUNNY     57  21  24 VRB5      30.14F
$$

AZZ027-028-242000-
SOUTHWEST MARICOPA COUNTY AND PINAL COUNTY

CITY           SKY/WX    TMP DP  RH WIND       PRES   REMARKS
CASA GRANDE    NOT AVBL
GILA BEND      SUNNY     57  19  23 W8        30.14F
$$

AZZ503-504-507>509-242000-
SOUTHEAST ARIZONA

CITY           SKY/WX    TMP DP  RH WIND       PRES   REMARKS
TUCSON         SUNNY     56  18  22 CALM      30.14F
DAVIS-MONTHAN  SUNNY     55  18  23 W7        30.13S
RYAN FIELD     SUNNY     55  19  24 N8        30.15S
NOGALES        SUNNY     56  16  20 VRB7      30.11S
SIERRA VISTA   SUNNY     53  10  17 NW14      30.11F
SAFFORD        SUNNY     54  14  20 NW15G23   30.07F
$$

AZZ020-021-025-026-031-242000-
SOUTHWEST ARIZONA

CITY           SKY/WX    TMP DP  RH WIND       PRES   REMARKS
YUMA           SUNNY     61  23  23 N6        30.16F
$$

CAZ031-033-041-043-047-048-061-242000-
SOUTHERN CALIFORNIA

CITY           SKY/WX    TMP DP  RH WIND       PRES   REMARKS
DOWNTOWN L.A.  SUNNY     60  27  28 VRB5      30.18F
L.A. AIRPORT   PTSUNNY   57  32  38 E5        30.18F
SAN DIEGO      MOSUNNY   61  35  37 VRB6      30.19F
BURBANK        SUNNY     54  26  34 CALM      30.17F
ONTARIO        PTSUNNY   54  25  32 S3        30.18S
RIVERSIDE      MOSUNNY   56  29  35 CALM      30.18F
PALM SPRINGS   SUNNY     60  34  37 VRB3      30.19F
EL CENTRO NAS  MOSUNNY   60  26  27 CALM      30.19S
IMPERIAL       SUNNY     61  30  31 CALM      30.17S
BLYTHE         MOSUNNY   58  24  27 N12       30.18S
$$

NVZ020-UTZ003-242000-
SOUTHERN NEVADA-UTAH

CITY           SKY/WX    TMP DP  RH WIND       PRES   REMARKS
LAS VEGAS      NOT AVBL
SALT LAKE CITY NOT AVBL
$$

NMZ009-TXZ055-242000-
NEW MEXICO-WEST TEXAS

CITY           SKY/WX    TMP DP  RH WIND       PRES   REMARKS
ALBUQUERQUE    MOSUNNY   42   0  17 W25       29.98F
EL PASO        SUNNY     58   5  12 W12G21    30.00F
$$


........................KEY........................
SKY/WX - SKY CONDITION/WEATHER
TMP    - TEMPERATURE IN FAHRENHEIT
DP     - DEW POINT IN FAHRENHEIT
RH     - RELATIVE HUMIDITY IN PERCENT
WIND   - DIRECTION AND SPEED IN MILES PER HOUR (MPH)
VRB    - VARIABLE WIND DIRECTION
PRES   - MEAN SEA LEVEL PRESSURE IN INCHES OF MERCURY
         F - FALLING PRESSURE   R - RISING PRESSURE
         S - STEADY PRESSURE
VSB    - VISIBILITY IN MILES
HX     - HEAT INDEX IN FAHRENHEIT
WCI    - WIND CHILL INDEX IN FAHRENHEIT
TC     - TEMPERATURE IN CELSIUS WHICH IS ALSO KNOWN AS
         TEMPERATURE IN CENTIGRADE
AFB    - AIR FORCE BASE
         LUKE AFB IS LUKE AIR FORCE BASE
         DAVIS-MONTHAN IS DAVIS-MONTHAN AIR FORCE BASE
NAS    - NAVAL AIR STATION
         EL CENTRO NAS IS EL CENTRO NAVAL AIR STATION
N/A    - NOT AVAILABLE





USA.gov is the U.S. government's official web portal to all federal, state and local government web resources and services.